Regional Weather Roundup
Issued by NWS

Home | Current Version | Previous Version | Text Only | Print | Product List | Glossary Off
Versions: 1 2 3 4 5 6 7 8 9 10 11 12 13 14 15 16 17 18 19 20 21 22 23 24 25 26 27 28 29 30 31 32 33 34 35 36 37 38 39 40 41 42 43 44 45 46 47 48 49 50

000
ASUS43 KFSD 240402
RWRSD

WEATHER ROUNDUP FOR SOUTH DAKOTA
NATIONAL WEATHER SERVICE SIOUX FALLS SD
1100 PM CDT TUE MAY 23 2017

NOTE: "FAIR" INDICATES FEW OR NO CLOUDS BELOW 12,000 FEET WITH NO
SIGNIFICANT WEATHER AND/OR OBSTRUCTIONS TO VISIBILITY.


SDZ001>005-009-010-012>017-240500-
NORTHWEST AND NORTH CENTRAL SOUTH DAKOTA

CITY           SKY/WX    TMP DP  RH WIND       PRES   REMARKS
BUFFALO          N/A     52  38  58 SE12      29.90F
FAITH            N/A     48  37  65 SE8       29.98F
MOBRIDGE       CLEAR     46  37  71 E5        29.96S
$$

SDZ012>016-024>037-041>051-057-063-072>074-240500-
SOUTHWEST AND SOUTH CENTRAL SOUTH DAKOTA

CITY           SKY/WX    TMP DP  RH WIND       PRES   REMARKS
RAPID CTY ARPT PTCLDY    44  35  70 SE3       30.01R
PIERRE         CLEAR     45  37  73 N6        29.97S
CUSTER         CLOUDY    43  28  55 NE5       30.04F
ELLSWORTH AFB  PTCLDY    49  35  58 S3        30.00S
PHILIP         CLEAR     40  35  83 W3        29.99F
PINE RIDGE     CLEAR     45  38  76 CALM      30.02R
SPEARFISH      FAIR      45  39  81 SE5       30.00F
WINNER         FAIR      48  40  73 N7        29.98S
$$

SDZ004>011-016>023-039-040-240500-
NORTHEAST SOUTH DAKOTA

CITY           SKY/WX    TMP DP  RH WIND       PRES   REMARKS
ABERDEEN       PTCLDY    45  40  82 N6        29.94F
WATERTOWN      PTCLDY    42  40  92 N7        29.91R
BROOKINGS      LGT RAIN  49  45  86 N10       29.90S
SISSETON         N/A     45  43  93 N9        29.91F
$$

SDZ017-020-022-023-036>040-048>070-240500-
SOUTHEAST SOUTH DAKOTA

CITY           SKY/WX    TMP DP  RH WIND       PRES   REMARKS
SIOUX FALLS    CLOUDY    51  47  86 N10       29.88S
HURON          CLEAR     42  41  96 NW6       29.94S
CHAMBERLAIN    CLOUDY    52  45  76 N3        29.97S
MITCHELL       CLEAR     48  44  86 NW10      29.94R
$$

ABBREVIATIONS USED IN REMARKS
   TC - TEMPERATURE IN CELSIUS
  WCI - WIND CHILL INDEX
   HX - HEAT INDEX
  VSB - VISIBILITY




USA.gov is the U.S. government's official web portal to all federal, state and local government web resources and services.